Temperature
22 20 19 19 20 20 21 21 20 20 21 20 19 19 19 20 19 19 19 19 19 19 19 19 19 18 18 18 18 17 17 17 17 16 16 16 16 15 15 15 15 15 15 15
19 19 21 21 21 21 21 20 20 20 21 21 19 19 19 19 19 19 19 19 19 19 19 19 18 18 18 18 18 17 17 17 17 16 16 16 15 15 15 15 15 15 14 14
20 21 22 22 22 22 21 20 20 20 20 20 19 18 18 18 19 19 19 19 18 18 18 18 18 18 18 17 17 17 17 17 16 16 16 15 15 15 15 15 15 14 14 14
20 21 22 22 22 22 20 21 21 21 19 17 19 17 17 17 17 17 18 18 18 18 18 18 18 18 17 17 17 17 17 16 16 16 15 15 15 15 15 15 15 14 14 14
20 21 21 21 22 22 21 22 21 20 19 18 18 17 16 16 17 17 17 18 18 18 18 17 18 17 17 17 17 17 16 16 16 16 15 15 15 15 15 14 14 14 14 14
20 21 22 22 22 22 21 20 19 17 16 17 17 17 16 15 16 17 17 17 17 17 17 17 17 17 17 17 17 16 16 16 16 15 15 15 15 15 14 14 14 14 14 14
19 20 21 22 21 21 20 17 16 16 15 16 17 17 16 17 17 17 16 17 17 17 17 17 16 16 17 16 16 16 16 16 15 15 15 15 15 15 14 14 14 14 14 14
18 18 20 21 21 20 19 17 16 16 16 16 17 16 16 17 17 17 17 17 17 17 17 16 16 16 16 16 16 16 16 16 15 15 15 15 14 14 14 14 14 14 14 14
17 18 20 21 21 20 19 17 17 16 16 16 16 16 17 17 16 16 16 16 16 16 17 16 16 16 16 16 16 15 15 15 15 15 15 14 14 14 14 14 14 14 14 14
18 18 19 20 21 20 20 18 15 16 16 15 16 16 15 16 16 16 15 15 16 16 16 16 16 16 15 15 15 15 15 15 15 15 15 14 14 14 14 14 14 14 14 14
17 17 17 18 19 19 19 19 16 14 14 15 15 15 17 16 16 15 15 16 16 16 16 16 15 15 15 15 15 15 15 15 15 14 14 14 14 14 14 14 13 13 13 13
16 14 15 17 18 19 19 18 16 15 15 14 14 15 17 16 16 16 15 16 15 15 15 15 15 15 15 15 14 14 14 14 14 14 14 14 14 14 13 13 13 13 13 13
16 14 15 16 16 17 18 18 17 15 14 13 14 15 16 15 15 16 15 15 15 15 15 15 15 14 14 14 14 14 14 14 14 14 13 13 13 13 13 13 13 13 13 13
16 14 14 15 15 16 17 17 17 15 14 14 14 15 15 15 14 14 15 15 15 14 14 14 14 14 14 14 14 13 13 13 13 13 13 13 13 13 13 13 13 13 13 13
15 14 15 15 16 16 17 17 17 16 15 14 15 15 15 14 14 14 15 14 14 14 14 14 13 13 13 13 13 13 13 13 13 13 13 13 12 12 12 12 12 12 12 12
14 14 15 15 16 16 16 16 16 16 16 15 15 15 14 15 15 14 14 14 14 14 14 13 13 13 13 13 12 12 12 12 12 12 12 12 12 12 12 12 12 12 12 12
13 13 14 13 14 15 15 16 16 16 16 15 15 14 14 13 13 14 14 13 13 13 13 13 13 13 12 12 12 12 12 12 12 12 12 12 12 12 12 12 11 11 11 11
13 12 11 12 14 14 15 15 16 15 15 15 15 14 14 14 14 14 14 14 13 13 13 13 13 12 12 12 12 12 11 11 11 11 11 11 11 11 11 11 11 11 11 11
13 12 12 11 12 13 15 16 16 15 14 14 14 14 14 13 13 13 14 13 13 13 13 12 12 12 12 12 11 11 11 11 11 11 11 11 11 11 11 11 11 11 11 11
12 11 11 11 13 13 14 15 16 15 13 14 14 13 13 13 11 11 13 13 13 13 12 12 12 12 12 11 11 11 11 11 11 11 10 10 11 11 11 11 10 10 10 10
12 12 11 11 12 12 14 15 15 14 13 14 14 14 13 12 12 13 13 13 12 12 12 12 12 11 11 11 11 10 10 10 10 10 10 10 10 10 10 10 10 10 10 10
12 11 11 10 11 12 14 14 13 13 14 14 14 14 14 13 13 13 12 12 12 12 11 11 11 11 11 10 10 10 10 10 10 10 10 10 10 10 10 9 9 9 9 9
11 11 11 11 12 13 14 14 15 15 14 14 14 14 13 13 12 12 12 12 12 11 11 10 10 10 10 10 10 10 9 9 9 9 9 9 9 9 9 9 9 9 9 9
11 12 11 11 11 13 14 14 14 14 14 14 14 13 13 12 12 12 11 11 11 11 10 10 10 10 10 9 9 9 9 9 9 9 9 9 9 9 9 9 8 8 8 8
11 11 10 10 11 12 13 13 13 13 13 13 13 13 12 12 12 11 11 11 10 10 10 10 10 9 9 9 9 9 9 9 9 8 8 8 8 8 8 8 8 8 8 8
10 10 10 10 11 11 12 13 13 13 13 12 12 12 12 11 11 11 10 10 10 10 10 9 9 9 9 9 9 8 8 8 8 8 8 8 8 8 8 8 8 8 8 7
Wind_Speed
1 3 3 7 7 7 5 3 3 4 3 1 3 4 5 4 4 5 5 6 6 6 5 4 5 6 6 5 5 5 5 4 4 3 3 2 2 1 2 2 4 5 5 6
4 4 9 7 5 4 2 1 2 3 2 1 2 3 3 2 4 6 6 6 7 5 4 4 4 5 5 5 5 5 5 5 4 3 3 3 3 2 1 2 3 4 5 5
5 7 5 2 2 2 1 2 2 2 3 3 2 4 3 2 1 2 2 4 6 7 7 6 5 4 4 5 5 5 5 5 4 4 3 3 3 2 2 2 1 1 3 4
4 5 2 1 1 2 3 3 2 1 1 3 2 2 5 2 2 1 2 3 4 5 6 6 6 5 5 5 5 4 4 4 4 5 5 5 3 2 2 2 1 1 3 4
4 2 1 2 3 2 4 3 1 1 1 1 1 3 5 1 1 1 1 3 3 4 6 6 6 6 5 5 5 5 4 4 4 4 5 5 3 2 1 1 2 2 1 2
4 3 3 4 2 1 1 4 6 6 4 1 4 4 4 2 4 2 1 2 3 4 4 4 3 3 3 3 4 5 5 4 3 4 4 5 5 3 3 2 2 1 1 1
5 4 2 1 2 4 5 6 4 5 4 4 2 3 3 4 3 4 4 3 3 4 5 4 3 3 3 3 3 4 5 3 3 3 3 3 5 5 5 4 3 3 2 1
1 5 4 1 3 3 2 7 6 3 3 4 3 1 3 2 1 3 4 4 4 4 4 4 3 3 2 2 2 3 3 3 3 3 3 2 3 3 3 4 3 4 3 3
2 5 5 3 1 5 3 3 6 6 1 2 3 2 3 3 3 3 3 4 4 4 4 4 3 3 2 2 2 3 3 2 2 2 2 2 2 3 3 3 3 3 2 2
4 3 5 3 3 2 4 5 5 4 2 2 3 3 4 4 3 1 1 3 4 4 3 3 3 3 2 2 1 2 3 3 2 2 2 2 2 3 3 3 2 2 3 2
3 2 4 3 1 2 1 2 3 3 4 4 3 5 4 7 5 3 2 3 4 4 4 3 3 3 2 2 2 2 1 1 1 1 1 1 1 1 2 2 2 2 2 3
2 4 1 5 5 2 3 4 5 3 3 3 3 6 4 5 4 3 2 2 3 3 3 2 2 2 2 2 1 1 0 1 2 1 1 1 1 1 1 1 2 2 2 3
3 4 2 6 6 4 1 1 3 4 3 3 4 6 2 2 2 2 2 2 2 2 2 1 1 1 1 1 1 0 1 1 2 2 2 1 1 1 1 1 2 1 2 2
4 4 5 6 6 3 4 5 3 4 3 4 6 6 4 2 2 2 2 3 3 2 2 2 1 1 1 1 1 1 1 1 1 2 2 1 1 1 1 1 1 1 1 2
5 2 3 5 6 4 5 7 6 5 7 7 7 7 7 6 6 5 4 4 3 2 1 1 1 0 1 1 1 1 1 1 1 1 1 1 1 1 1 0 0 0 0 2
3 3 0 4 4 4 6 7 6 5 4 5 4 5 3 3 3 3 3 4 3 3 3 2 1 1 0 1 1 1 1 2 1 1 1 1 1 1 0 1 0 0 1 1
2 3 1 4 5 4 5 6 5 3 3 4 5 6 3 3 4 4 4 3 3 3 3 3 3 2 2 2 2 2 2 2 1 1 0 1 1 1 1 1 0 1 1 0
5 4 3 1 2 4 7 4 2 2 2 2 3 3 5 4 4 3 4 4 3 3 2 3 3 2 2 2 2 2 2 1 1 1 1 1 1 1 1 1 1 1 1 1
5 6 3 2 2 6 7 4 1 2 3 1 2 2 2 2 3 2 1 3 4 4 4 3 3 3 2 2 2 1 1 1 1 2 2 2 2 2 2 2 2 2 1 1
4 4 4 3 3 6 6 4 1 3 2 2 3 3 3 3 1 4 3 1 2 1 2 2 1 1 1 2 2 1 2 2 3 3 3 3 2 3 3 3 2 1 1 2
1 1 3 4 5 7 6 3 2 2 5 3 2 3 3 3 4 4 2 1 1 1 1 1 1 1 3 2 2 2 3 4 4 4 3 2 2 2 3 2 2 1 1 1
5 4 4 4 4 7 4 2 3 5 3 1 2 2 2 2 2 1 1 1 1 0 0 0 0 2 3 2 2 2 3 4 3 2 2 2 2 2 1 1 1 1 2 1
5 6 5 7 7 5 3 3 3 3 2 2 2 2 2 2 2 2 2 1 1 1 1 1 1 2 3 2 2 3 3 2 1 1 2 2 2 2 1 2 2 1 1 2
4 1 2 3 5 4 3 1 1 1 2 2 2 3 3 3 3 2 2 2 2 1 2 1 1 2 3 3 2 3 3 2 1 1 2 1 1 1 2 1 2 2 2 3
5 1 2 4 5 2 3 3 2 1 1 1 1 2 3 3 3 3 3 3 3 2 2 2 2 3 4 3 2 2 2 1 1 1 1 1 1 1 2 2 2 3 3 4
5 5 5 7 7 5 5 4 3 2 2 2 1 1 1 3 3 3 3 3 3 3 2 2 3 3 4 3 3 3 3 2 2 1 1 1 1 1 1 1 3 4 3 5
Wind_Direction
0 82 225 229 212 207 211 218 253 256 249 155 217 233 237 215 184 188 190 184 173 175 181 152 139 139 138 135 133 134 131 129 120 117 115 104 103 86 74 74 84 94 98 101
30 263 242 236 235 227 223 241 308 318 307 187 234 265 259 204 189 191 188 187 177 168 147 133 134 138 140 146 147 147 147 147 143 147 152 147 142 127 132 91 83 98 101 107
204 247 250 226 240 203 237 194 222 249 344 12 64 343 321 326 45 86 139 158 161 165 166 158 149 147 144 146 155 158 156 151 150 142 121 98 74 62 56 74 98 92 114 114
238 262 243 191 245 181 237 226 200 201 51 283 137 271 287 271 349 24 106 135 151 159 161 161 156 153 164 168 157 147 147 148 150 139 136 139 142 160 197 178 161 156 134 127
271 254 147 203 228 186 220 229 209 225 169 319 304 162 289 344 299 266 168 158 151 153 153 155 166 169 168 159 153 146 134 136 143 141 147 149 157 180 179 148 137 140 146 152
254 253 192 213 244 204 123 40 26 41 69 315 247 168 265 256 228 218 167 144 150 135 139 148 151 136 136 137 140 138 135 138 147 145 157 163 167 167 153 159 164 169 172 185
327 325 304 130 30 1 72 77 28 359 8 267 289 140 243 264 216 176 166 158 142 136 129 123 115 120 136 139 150 151 146 152 167 162 172 175 179 177 178 182 182 176 177 204
359 301 293 246 170 196 156 134 152 197 234 285 346 206 262 302 65 117 132 129 117 127 131 136 145 145 145 148 145 150 160 169 177 171 181 180 175 178 190 188 185 189 195 204
172 263 293 275 190 143 133 166 172 151 228 267 286 281 311 31 52 74 102 106 124 147 149 146 142 127 116 115 152 168 167 162 171 172 172 174 181 185 193 188 185 197 205 203
155 256 290 303 37 19 149 149 92 117 180 260 277 253 230 230 230 208 143 159 165 150 143 144 145 140 135 132 131 143 157 170 176 172 178 177 182 182 181 171 177 193 201 198
108 158 307 355 188 230 86 99 108 129 158 168 245 265 222 198 199 197 205 181 164 153 158 160 160 162 162 118 90 87 133 151 154 173 184 164 181 190 175 180 199 208 205 191
99 119 271 272 275 242 176 175 146 160 240 186 192 262 284 177 167 151 158 157 153 157 155 156 166 148 140 130 119 86 111 171 192 184 153 168 167 122 136 193 226 214 200 195
107 105 41 340 341 357 4 233 167 147 146 180 192 256 319 98 125 140 137 134 148 148 138 116 100 152 166 172 178 196 237 204 192 159 139 119 111 137 204 232 235 224 209 199
111 119 165 203 234 255 278 287 252 154 182 222 220 233 263 229 190 180 148 130 115 121 125 98 61 334 289 231 206 227 264 224 167 142 136 156 209 212 221 243 247 239 212 182
99 154 208 240 257 261 260 268 261 226 206 207 225 219 231 214 198 189 168 139 117 121 127 142 154 245 314 334 337 267 252 241 174 135 148 198 224 214 195 195 237 240 175 180
101 170 255 295 293 298 286 272 258 248 227 209 214 242 235 192 168 155 153 149 157 189 198 196 199 207 256 317 315 294 277 251 198 162 199 221 213 176 171 209 188 143 178 190
153 158 166 271 298 330 284 260 230 235 243 193 215 227 184 157 169 177 175 174 191 206 210 197 203 217 231 250 256 255 268 268 218 184 204 232 211 207 215 224 173 192 220 194
162 151 154 241 344 252 249 268 197 177 286 216 177 187 179 188 197 183 171 173 200 208 210 216 212 219 233 255 267 281 295 253 231 258 258 279 254 235 228 189 197 213 205 193
163 152 146 151 235 273 285 285 210 186 292 288 156 146 129 107 45 334 245 188 201 211 211 218 209 204 215 235 251 284 286 252 233 260 259 254 239 225 219 208 216 215 180 197
93 113 137 158 207 244 249 271 289 95 274 276 147 157 157 106 38 269 261 224 210 205 193 193 195 196 216 242 219 206 253 238 245 254 255 252 244 223 217 214 215 221 195 211
60 94 165 192 227 260 258 272 56 180 241 256 183 176 167 187 216 231 213 193 182 177 186 176 168 226 242 237 191 225 252 247 255 257 256 262 255 242 221 208 208 205 208 218
190 187 198 177 209 251 256 128 177 220 243 223 203 184 166 190 190 187 184 170 161 139 320 140 223 280 273 241 196 224 241 249 258 264 273 274 269 263 252 200 214 217 196 206
203 196 194 196 219 246 243 216 228 189 186 208 195 215 177 175 208 213 217 216 219 215 255 266 238 283 293 269 214 207 244 246 242 256 268 272 289 287 255 211 212 224 218 217
273 209 176 241 259 265 276 275 266 187 180 196 189 190 182 199 218 225 228 244 248 253 253 248 253 278 283 277 228 214 234 241 208 250 271 274 284 317 308 266 226 217 225 230
244 222 226 255 269 298 296 274 233 207 159 170 212 209 194 192 208 217 230 237 244 258 260 242 225 246 266 272 248 237 229 191 181 268 279 290 296 285 306 297 273 255 243 236
226 203 204 235 237 215 242 256 244 225 242 212 206 275 238 199 204 218 230 234 237 253 263 255 240 242 256 250 248 246 231 196 181 239 267 258 265 275 271 285 313 308 288 286
Height
1521 1526 1530 1527 1525 1526 1527 1530 1532 1527 1520 1523 1526 1526 1523 1522 1522 1523 1523 1524 1525 1526 1527 1528 1529 1530 1531 1531 1532 1533 1533 1534 1534 1534 1534 1535 1535 1535 1535 1535 1535 1535 1535 1535
1526 1528 1521 1518 1519 1522 1525 1529 1530 1526 1520 1523 1527 1526 1522 1521 1521 1521 1521 1522 1523 1524 1526 1527 1528 1529 1529 1530 1531 1532 1532 1533 1533 1533 1534 1534 1534 1534 1535 1535 1535 1535 1535 1535
1528 1522 1516 1517 1520 1523 1525 1528 1528 1528 1524 1523 1527 1532 1527 1523 1522 1521 1521 1521 1522 1522 1523 1525 1526 1527 1528 1529 1530 1531 1531 1532 1532 1533 1533 1534 1534 1534 1534 1534 1534 1534 1535 1535
1522 1517 1516 1518 1520 1520 1527 1520 1521 1523 1531 1537 1532 1547 1532 1526 1524 1522 1521 1521 1521 1521 1522 1523 1524 1525 1526 1528 1529 1530 1530 1531 1532 1532 1532 1533 1533 1533 1533 1533 1534 1534 1534 1534
1522 1517 1517 1519 1518 1517 1519 1516 1518 1521 1528 1536 1534 1543 1539 1529 1528 1524 1522 1521 1521 1521 1521 1522 1523 1524 1525 1527 1528 1529 1529 1530 1531 1531 1532 1532 1532 1532 1533 1533 1533 1533 1534 1534
1518 1514 1514 1515 1513 1513 1514 1519 1522 1529 1535 1546 1537 1543 1543 1533 1528 1524 1522 1521 1521 1521 1522 1522 1523 1524 1525 1526 1527 1528 1529 1529 1529 1530 1530 1531 1531 1531 1531 1532 1532 1532 1533 1533
1523 1517 1513 1512 1515 1515 1519 1534 1549 1550 1555 1551 1535 1538 1539 1526 1522 1521 1521 1521 1521 1521 1522 1523 1523 1524 1525 1526 1527 1527 1528 1528 1528 1529 1529 1529 1530 1530 1530 1530 1531 1531 1531 1532
1534 1532 1517 1513 1516 1520 1521 1531 1550 1558 1558 1550 1538 1541 1534 1523 1520 1520 1520 1520 1521 1521 1522 1523 1523 1524 1524 1526 1526 1527 1527 1527 1527 1527 1528 1528 1528 1528 1529 1529 1529 1530 1530 1530
1533 1532 1516 1512 1511 1515 1522 1529 1530 1543 1546 1551 1546 1537 1529 1523 1522 1521 1520 1520 1521 1521 1522 1523 1523 1524 1524 1524 1525 1525 1525 1526 1526 1526 1526 1526 1526 1527 1527 1527 1527 1528 1528 1529
1525 1531 1520 1514 1513 1514 1516 1522 1535 1543 1552 1557 1548 1542 1538 1528 1525 1522 1521 1520 1520 1521 1522 1522 1523 1523 1524 1524 1524 1524 1524 1524 1524 1524 1524 1524 1524 1525 1525 1525 1525 1526 1526 1527
1522 1530 1527 1521 1521 1522 1521 1524 1531 1541 1545 1554 1556 1546 1523 1522 1521 1520 1520 1519 1520 1520 1521 1522 1522 1522 1523 1523 1522 1522 1523 1523 1523 1522 1522 1522 1522 1523 1522 1523 1523 1523 1524 1524
1523 1532 1536 1527 1518 1515 1517 1522 1530 1542 1544 1545 1550 1543 1517 1518 1518 1519 1519 1520 1520 1520 1520 1521 1521 1521 1521 1521 1521 1521 1521 1521 1521 1520 1520 1520 1520 1520 1520 1520 1520 1521 1521 1522
1523 1533 1542 1537 1531 1522 1520 1520 1523 1532 1540 1545 1548 1540 1519 1518 1518 1519 1519 1519 1519 1519 1520 1520 1520 1520 1520 1520 1520 1519 1519 1519 1519 1519 1518 1518 1518 1518 1518 1518 1518 1518 1519 1519
1520 1531 1539 1542 1536 1528 1525 1521 1520 1528 1539 1540 1536 1530 1522 1520 1519 1519 1518 1518 1519 1519 1519 1519 1518 1518 1519 1518 1518 1517 1517 1517 1517 1516 1516 1516 1516 1515 1515 1515 1515 1515 1516 1516
1521 1531 1529 1528 1524 1523 1522 1520 1518 1521 1525 1531 1526 1524 1520 1518 1517 1517 1517 1517 1518 1518 1518 1518 1518 1517 1517 1516 1516 1516 1515 1515 1514 1514 1513 1513 1513 1513 1513 1513 1513 1513 1513 1513
1523 1528 1528 1528 1523 1522 1521 1517 1516 1516 1516 1518 1519 1520 1515 1515 1515 1516 1516 1516 1516 1517 1517 1517 1517 1516 1515 1515 1514 1513 1513 1513 1512 1512 1511 1511 1511 1511 1510 1510 1510 1510 1510 1511
1525 1528 1532 1534 1526 1523 1526 1517 1515 1514 1512 1513 1518 1516 1513 1514 1514 1514 1515 1515 1515 1515 1516 1515 1515 1515 1514 1513 1512 1511 1510 1510 1510 1509 1509 1509 1509 1508 1508 1508 1507 1507 1507 1508
1523 1527 1534 1535 1532 1535 1522 1510 1509 1511 1510 1509 1509 1510 1510 1510 1511 1512 1513 1513 1513 1513 1513 1513 1513 1512 1512 1511 1510 1509 1509 1508 1507 1507 1506 1506 1506 1505 1505 1505 1505 1505 1504 1505
1516 1523 1532 1537 1537 1530 1518 1510 1509 1511 1512 1509 1508 1508 1509 1509 1509 1510 1511 1511 1511 1511 1511 1511 1510 1510 1510 1509 1508 1507 1506 1506 1505 1504 1503 1503 1503 1503 1502 1502 1502 1502 1502 1502
1516 1520 1529 1535 1534 1533 1518 1508 1506 1509 1514 1509 1507 1507 1508 1508 1512 1510 1508 1508 1509 1508 1508 1508 1508 1507 1507 1506 1505 1504 1503 1503 1502 1502 1501 1501 1500 1500 1500 1499 1499 1499 1499 1499
1523 1525 1530 1532 1532 1524 1511 1506 1507 1517 1515 1507 1506 1506 1506 1507 1508 1507 1506 1506 1506 1506 1505 1505 1505 1504 1504 1503 1502 1501 1500 1499 1499 1499 1499 1498 1498 1497 1497 1496 1496 1496 1496 1496
1523 1526 1528 1530 1531 1524 1506 1506 1509 1509 1505 1505 1505 1505 1505 1504 1504 1504 1504 1504 1503 1503 1502 1502 1501 1501 1501 1500 1499 1497 1496 1496 1496 1496 1496 1495 1495 1494 1494 1494 1493 1493 1493 1492
1517 1516 1517 1518 1516 1507 1504 1504 1504 1504 1504 1503 1503 1503 1503 1503 1502 1502 1502 1502 1501 1500 1499 1499 1498 1497 1497 1496 1496 1494 1494 1494 1493 1493 1492 1492 1492 1491 1491 1490 1490 1490 1489 1489
1512 1509 1511 1511 1507 1504 1503 1502 1502 1502 1502 1502 1501 1501 1501 1500 1500 1500 1500 1499 1498 1497 1497 1496 1495 1494 1493 1493 1492 1492 1491 1491 1490 1489 1489 1489 1488 1488 1488 1487 1487 1486 1486 1485
1509 1508 1508 1508 1504 1502 1501 1501 1500 1500 1500 1499 1499 1499 1498 1498 1497 1497 1497 1496 1495 1494 1494 1493 1492 1491 1490 1489 1489 1489 1488 1488 1487 1486 1486 1485 1485 1485 1484 1484 1484 1483 1482 1482
1504 1504 1505 1504 1500 1500 1499 1498 1498 1498 1497 1497 1496 1496 1495 1495 1494 1494 1493 1493 1492 1491 1490 1489 1488 1487 1486 1486 1485 1485 1485 1485 1484 1483 1482 1482 1482 1481 1481 1480 1480 1479 1479 1478